Find OTP-2

NORAD ID: 63235 Int'l Des: 2025-052 Owner: ROGUE Country: US operational
LEOCIRCULARRETROGRADESSO

Live Position

Loading 3D Globe...

About OTP-2

Description loading...

Upcoming Passes

Passes for default location (London). Set your location on the main map for personalized predictions.

Altitude History

Loading altitude history...

Two-Line Element Set

1 63235U 25052AB 26103.66443974 .00004445 00000-0 19114-3 0 9994
2 63235 97.3945 357.0736 0007613 42.5859 317.5967 15.23134117 60045
Epoch: Apr 13, 2026 • Age: 23 hours

Current Status

Altitude 501.9 km
Velocity 7.61 km/s
Sub-Earth Point 13.27°N, 115.73°E
Launch Date Mar 15, 2025
Age 1 years
Type other

Technical Details

Classification Payload
Mass 11.00 kg
Dry Mass 11.00 kg
Total Mass 11.00 kg
Length 0.50 m
Diameter 0.10 m
Span 0.50 m
Shape Box+ 2 pan
Manufacturer ROGUE
Bus Type Cubesat 8U
Phase Status In Orbit
Owner/State ROGUE/US

Most Searched